User: anonymous   Login
Location: Carlisle
(34.5501°N, 84.5969°W)
Time: 12:43:17
(UTC+00:00)
Language:

STARS - Orbit

View from above orbital plane
View from above orbital plane
View from above satellite
View from above satellite

Ground track
Ground track

The orbit data is extracted from the following two-line orbital elements,

1 33498U 09002G   23086.70523995  .00004065  00000-0  52539-3 0  9999
2 33498  98.1423 348.2480 0011823  61.4574 298.7826 14.81450887763348
Epoch (UTC): 27 March 2023 16:55:32
Eccentricity: 0.0011823
inclination: 98.1423°
perigee height: 616 km
apogee height: 633 km
right ascension of ascending node: 348.2480°
argument of perigee: 61.4574°
revolutions per day: 14.81450887
mean anomaly at epoch: 298.7826°
orbit number at epoch: 76334

The dashed part of the orbit path shows where the satellite is in the earth's shadow,  

DLR